Location: Rio Negrinho
(26.2394°S, 49.4999°W)
Time: 23:55:56
(UTC+00:00)

H-2A R/B - Visible Passes

Search period start: 13 June 2021 00:00
Search period end: 23 June 2021 00:00
Orbit: 501 x 538 km, 97.3° (Epoch: 12 March)

Date Brightness Start Highest point End Pass type
(mag) Time Alt. Az. Time Alt. Az. Time Alt. Az.
13 Jun 6.0 07:17:33 10° NE 07:17:40 11° NE 07:17:40 11° NE visible
13 Jun 4.9 08:52:10 10° NW 08:52:43 12° NW 08:52:43 12° NW visible
14 Jun 4.7 08:37:25 10° NNW 08:38:35 16° NW 08:38:35 16° NW visible
15 Jun 4.5 08:23:02 10° NNW 08:24:27 20° NNW 08:24:27 20° NNW visible
16 Jun 4.6 08:08:53 10° N 08:10:19 22° N 08:10:19 22° N visible
16 Jun 5.6 21:24:02 10° SW 21:26:00 14° WSW 21:27:58 10° WNW visible
17 Jun 4.9 07:54:55 10° NNE 07:56:11 20° NNE 07:56:11 20° NNE visible
17 Jun 5.2 21:09:17 10° SSW 21:12:09 21° WSW 21:15:01 10° NW visible
18 Jun 5.3 07:41:09 10° NNE 07:42:03 16° NNE 07:42:03 16° NNE visible
18 Jun 4.5 20:54:55 10° S 20:58:17 33° WSW 21:01:39 10° NW visible
19 Jun 5.8 07:27:35 10° NE 07:27:54 12° NE 07:27:54 12° NE visible
20 Jun 5.0 08:48:33 10° NW 08:48:50 11° NW 08:48:50 11° NW visible
21 Jun 4.8 08:33:52 10° NNW 08:34:41 15° NNW 08:34:41 15° NNW visible
22 Jun 4.8 08:19:31 10° N 08:20:32 17° NNW 08:20:32 17° NNW visible
